Time,TemperatureF,DewpointF,PressureIn,WindDirection,WindDirectionDegrees,WindSpeedMPH,WindSpeedGustMPH,Humidity,HourlyPrecipIn,Conditions,Clouds,dailyrainin,SoftwareType,DateUTC
2015-08-30 00:05:00,70.8,68.0,30.03,SSW,193,0.0,0.0,91,0.00,,,0.00,Wunderground v.1.15,2015-08-30 04:05:00,
2015-08-30 00:11:00,70.8,68.4,30.03,SSW,201,4.0,4.0,92,0.00,,,0.00,Wunderground v.1.15,2015-08-30 04:11:00,
2015-08-30 00:17:00,70.6,68.2,30.03,West,264,0.0,4.0,92,0.25,,,0.02,Wunderground v.1.15,2015-08-30 04:17:00,
2015-08-30 00:22:00,70.4,68.0,30.04,SW,217,4.0,4.0,92,0.12,,,0.03,Wunderground v.1.15,2015-08-30 04:22:00,
2015-08-30 00:28:00,69.6,66.9,30.04,South,190,0.0,9.0,91,0.29,,,0.12,Wunderground v.1.15,2015-08-30 04:28:00,
2015-08-30 00:34:00,69.3,66.9,30.05,South,190,0.0,1.0,92,0.22,,,0.18,Wunderground v.1.15,2015-08-30 04:34:00,
2015-08-30 00:39:00,69.3,67.2,30.05,South,190,0.0,1.0,93,0.12,,,0.19,Wunderground v.1.15,2015-08-30 04:39:00,
2015-08-30 00:45:00,69.3,67.2,30.05,South,190,0.0,0.0,93,0.07,,,0.20,Wunderground v.1.15,2015-08-30 04:45:00,
2015-08-30 00:50:00,69.3,67.5,30.04,South,190,0.0,0.0,94,0.24,,,0.22,Wunderground v.1.15,2015-08-30 04:50:00,
2015-08-30 00:56:00,69.3,67.5,30.04,South,190,0.0,0.0,94,0.09,,,0.22,Wunderground v.1.15,2015-08-30 04:56:00,
2015-08-30 01:02:00,68.9,67.1,30.04,South,190,0.0,0.0,94,0.05,,,0.22,Wunderground v.1.15,2015-08-30 05:02:00,
2015-08-30 01:08:00,68.8,67.3,30.05,South,190,0.0,0.0,95,0.00,,,0.22,Wunderground v.1.15,2015-08-30 05:08:00,
2015-08-30 01:18:00,68.4,66.9,30.05,South,190,0.0,0.0,95,0.00,,,0.22,Wunderground v.1.15,2015-08-30 05:18:00,
2015-08-30 01:23:00,68.1,66.6,30.05,South,190,0.0,0.0,95,0.00,,,0.22,Wunderground v.1.15,2015-08-30 05:23:00,
2015-08-30 01:29:00,68.1,66.6,30.05,South,190,0.0,0.0,95,0.00,,,0.22,Wunderground v.1.15,2015-08-30 05:29:00,
2015-08-30 01:35:00,67.9,66.7,30.04,South,190,0.0,0.0,96,0.00,,,0.23,Wunderground v.1.15,2015-08-30 05:35:00,
2015-08-30 01:41:00,67.8,66.6,30.04,South,191,0.0,0.0,96,0.00,,,0.23,Wunderground v.1.15,2015-08-30 05:41:00,
2015-08-30 01:47:00,67.6,66.4,30.04,South,191,0.0,0.0,96,0.00,,,0.23,Wunderground v.1.15,2015-08-30 05:47:00,
2015-08-30 01:53:00,67.6,66.4,30.03,South,191,0.0,0.0,96,0.00,,,0.23,Wunderground v.1.15,2015-08-30 05:53:00,
2015-08-30 01:59:00,67.4,66.2,30.03,South,191,0.0,0.0,96,0.00,,,0.24,Wunderground v.1.15,2015-08-30 05:59:00,
2015-08-30 02:04:00,67.3,66.1,30.03,South,191,0.0,0.0,96,0.00,,,0.24,Wunderground v.1.15,2015-08-30 06:04:00,
2015-08-30 02:09:00,67.3,66.1,30.03,South,191,0.0,0.0,96,0.00,,,0.24,Wunderground v.1.15,2015-08-30 06:09:00,
2015-08-30 02:14:00,67.1,65.9,30.03,South,191,0.0,0.0,96,0.00,,,0.24,Wunderground v.1.15,2015-08-30 06:14:00,
2015-08-30 02:19:00,67.1,65.9,30.03,South,191,0.0,0.0,96,0.00,,,0.24,Wunderground v.1.15,2015-08-30 06:19:00,
2015-08-30 02:24:00,67.1,66.2,30.03,South,191,0.0,0.0,97,0.00,,,0.24,Wunderground v.1.15,2015-08-30 06:24:00,
2015-08-30 02:29:00,67.1,66.2,30.03,South,191,0.0,0.0,97,0.00,,,0.24,Wunderground v.1.15,2015-08-30 06:29:00,
2015-08-30 02:34:00,67.1,66.2,30.03,South,191,0.0,0.0,97,0.00,,,0.24,Wunderground v.1.15,2015-08-30 06:34:00,
2015-08-30 02:39:00,67.1,66.2,30.03,South,191,0.0,0.0,97,0.00,,,0.24,Wunderground v.1.15,2015-08-30 06:39:00,
2015-08-30 02:44:00,67.1,66.2,30.03,South,191,0.0,0.0,97,0.00,,,0.25,Wunderground v.1.15,2015-08-30 06:44:00,
2015-08-30 02:49:00,67.1,66.2,30.03,South,191,0.0,0.0,97,0.10,,,0.25,Wunderground v.1.15,2015-08-30 06:49:00,
2015-08-30 02:54:00,67.1,66.2,30.03,South,191,0.0,0.0,97,0.14,,,0.27,Wunderground v.1.15,2015-08-30 06:54:00,
2015-08-30 02:59:00,67.1,66.2,30.03,South,191,0.0,0.0,97,0.11,,,0.28,Wunderground v.1.15,2015-08-30 06:59:00,
2015-08-30 03:04:00,66.9,66.0,30.03,South,191,0.0,0.0,97,0.11,,,0.28,Wunderground v.1.15,2015-08-30 07:04:00,
2015-08-30 03:05:00,66.9,66.0,30.03,South,191,0.0,0.0,97,0.09,,,0.28,Wunderground v.1.15,2015-08-30 07:05:00,
2015-08-30 03:06:00,66.9,66.0,30.03,South,191,0.0,0.0,97,0.08,,,0.28,Wunderground v.1.15,2015-08-30 07:06:00,
2015-08-30 03:11:00,66.8,65.9,30.03,South,191,0.0,0.0,97,0.06,,,0.29,Wunderground v.1.15,2015-08-30 07:11:00,
2015-08-30 03:16:00,66.8,65.9,30.03,South,191,0.0,0.0,97,0.06,,,0.29,Wunderground v.1.15,2015-08-30 07:16:00,
2015-08-30 03:21:00,66.6,65.7,30.02,South,191,0.0,0.0,97,0.05,,,0.29,Wunderground v.1.15,2015-08-30 07:21:00,
2015-08-30 03:26:00,66.4,65.5,30.02,South,191,0.0,0.0,97,0.05,,,0.30,Wunderground v.1.15,2015-08-30 07:26:00,
2015-08-30 03:31:00,66.4,65.5,30.02,South,191,0.0,0.0,97,0.08,,,0.31,Wunderground v.1.15,2015-08-30 07:31:00,
2015-08-30 03:36:00,66.4,65.8,30.01,South,191,0.0,0.0,98,0.08,,,0.31,Wunderground v.1.15,2015-08-30 07:36:00,
2015-08-30 03:41:00,66.4,65.8,30.01,South,191,0.0,0.0,98,0.05,,,0.31,Wunderground v.1.15,2015-08-30 07:41:00,
2015-08-30 03:46:00,66.4,65.8,30.01,South,191,0.0,0.0,98,0.04,,,0.31,Wunderground v.1.15,2015-08-30 07:46:00,